Regional Weather Roundup
Issued by NWS Little Rock, AR

Home | Current Version | Previous Version | Text Only | Print | Product List | Glossary On
Versions: 1 2 3 4 5 6 7 8 9 10 11 12 13 14 15 16 17 18 19 20 21 22 23 24 25 26 27 28 29 30 31 32 33 34 35 36 37 38 39 40 41 42 43 44 45 46 47 48 49 50
000
ASUS44 KLZK 132005
RWRLZK

WEATHER ROUNDUP FOR ARKANSAS
NATIONAL WEATHER SERVICE LITTLE ROCK AR
200 PM CST SAT FEB 13 2016

NOTE: "FAIR" INDICATES FEW OR NO CLOUDS BELOW 12,000 FEET WITH NO
SIGNIFICANT WEATHER AND/OR OBSTRUCTIONS TO VISIBILITY.

ARZ001-003-010-029-132100-
NORTHWEST ARKANSAS

CITY           SKY/WX    TMP DP  RH WIND       PRES   REMARKS
FAYETTEVILLE   SUNNY     48  15  26 VRB3      30.35F
FORT SMITH     SUNNY     50  12  21 E9        30.39F
HARRISON       CLOUDY    39   5  24 SE10      30.40F
BENTONVILLE    SUNNY     45   9  23 SE10      30.37F
ROGERS         SUNNY     42   6  22 SE9G16    30.36F
SILOAM SPGS    SUNNY     45  14  29 S6        30.35F
HIGHFILL       SUNNY     45  10  24 SE7       30.35F
SPRINGDALE     SUNNY     46   7  19 E6G13     30.36F
$$

ARZ004-005-016-132100-
NORTH CENTRAL ARKANSAS

CITY           SKY/WX    TMP DP  RH WIND       PRES   REMARKS
BATESVILLE     SUNNY     37   3  23 E10       30.52F
FLIPPIN        SUNNY     37   1  22 SE7       30.44F
MTN HOME       SUNNY     36  -4  18 E8        30.44F
$$

ARZ040-041-132100-
WEST CENTRAL ARKANSAS

CITY           SKY/WX    TMP DP  RH WIND       PRES   REMARKS
MENA           SUNNY     52  23  32 NE8G16    30.36F
MOUNT IDA      SUNNY     48  15  26 VRB6      30.38F
$$

ARZ009-017-025-026-028-132100-
NORTHEAST ARKANSAS

CITY           SKY/WX    TMP DP  RH WIND       PRES   REMARKS
CORNING        FAIR      32   5  32 E14       30.56F WCI  22
JONESBORO      SUNNY     30  11  45 NE14      30.55F WCI  19
NEWPORT        SUNNY     34   5  29 CALM      30.55F
WALNUT RIDGE   SUNNY     32   3  29 E13G20    30.55F WCI  22
BLYTHEVILLE    SUNNY     36   9  32 E8G17     30.55F
$$

ARZ022-023-033-042-044-132100-
CENTRAL ARKANSAS

CITY           SKY/WX    TMP DP  RH WIND       PRES   REMARKS
LITTLE ROCK    PTSUNNY   40   9  28 E12       30.50F
N LITTLE ROCK  PTSUNNY   42  12  30 SE8       30.50F
JACKSONVILLE   SUNNY     40   6  24 E7        30.48F
SEARCY         MOSUNNY   38   8  29 E12       30.51F
HOT SPRINGS    SUNNY     45   9  23 SE9       30.43F
RUSSELLVILLE   MOSUNNY   42   9  25 SE9       30.45F
CLINTON        FAIR      41   7  24 CALM      30.47F
$$

ARZ036-132100-
EAST ARKANSAS

CITY           SKY/WX    TMP DP  RH WIND       PRES   REMARKS
WEST MEMPHIS   SUNNY     37  13  37 VRB6      30.51F
$$

ARZ050-053-066-070-073-132100-
SOUTHWEST ARKANSAS

CITY           SKY/WX    TMP DP  RH WIND       PRES   REMARKS
ARKADELPHIA    FAIR      49  16  27 VRB6      30.45F
CAMDEN         SUNNY     50  14  23 NE8       30.44F
TEXARKANA      SUNNY     51  26  37 NE10      30.39F
EL DORADO      SUNNY     50  21  32 NE9       30.43F
DE QUEEN       SUNNY     51  25  36 SE9       30.38F
$$

ARZ056-057-069-132100-
SOUTHEAST ARKANSAS

CITY           SKY/WX    TMP DP  RH WIND       PRES   REMARKS
PINE BLUFF     SUNNY     40   8  26 NE10G17   30.49F
STUTTGART      SUNNY     37   9  30 NE8       30.51F
MONTICELLO     SUNNY     46  10  23 NE10G20   30.46F

$$





USA.gov is the U.S. government's official web portal to all federal, state and local government web resources and services.